STARLINK-4681, 53594

Orbit data source: Space-Track

STARLINK-4681, 53594 is a payload satellite owned by SpaceX/Seattle (US) in LEO that was launched on Sun, 28 Aug 2022 UTC via an FALCON 9 launch vehicle from the Air Force Eastern Test Range (AFETR). Payload-class satellites include a variety of spacecraft equipped with specific instruments for various scientific and technological missions. These include communications satellites like Starlink; space stations such as the ISS; scientific satellites like the Hubble; Earth observation satellites from companies like Planet Labs, Umbra, and HawkEye 360; GPS; miniature CubeSats for education and research; and military/defense satellites.

Loading next visibility...
Identifier
53594, 2022-104G
Orbit
LEO
Country
Flag of USUS
Related business
Manufacturer
SpaceX/Seattle
Mission
Operational Commercial Communications
Bus & Motor
STARLINK, Unknown motor
Mass
300 kg wet, ~290 kg dry
Launch date (UTC)
2022-08-28 (4 years ago)
Launch vehicle
FALCON 9
Launch site
Air Force Eastern Test Range (AFETR)
Object type
Payload
Rocket body
Debris
Shape & HBR
Box + 1 Pan, 10.1 m
Radar Cross Section
13.562 m², Large (>1 m²)

Expand to show TLE details & history
Last TLE update: 10 hours ago

TLE from 10 hours ago
0 STARLINK-4681
1 53594U 22104G   26072.66667824  .00014072  00000-0  84628-3 0  9992
2 53594  53.2165 226.2238 0001705  95.0150 345.0936 15.11110822  5814
Epoch: 2026-03-13T16:00Z
TLE epoch observation values (Epoch: 2026-03-13T16:00:00.999Z)
Latitude
52.24106°
Longitude
-111.34133°
Altitude
538.019 km
Speed
7.6 km/s
True Right ascension
19h 59m 50s
True Declination
52° 04' 09"
Sunlit
Object was in daylight at epoch
Visualization orbit readout
Latitude
Unknown
Longitude
Unknown
Altitude
Unknown
Speed
Unknown
Apparent Right ascension
Unknown
Apparent Declination
Unknown
Sunlit
N/A
Visualization observer readout
Local Sidereal Time
06:39:22
Azimuth
Unknown
Elevation
Unknown
Doppler factor
Unknown
Orbital elements
Apogee altitude
534.235 km
Perigee altitude
531.878 km
Semi-major axis
6,911.193 km
Eccentricity
0.00017
Inclination
53.2165°
RAAN
226.2238°
Arg. of periapsis
95.015°
True anomaly
345.08857°
Mean anomaly
345.0936°
Eccentric anomaly
345.09109°
Mean motion
3.77758 °/min
Orbital period
95.3 mins
BSTAR
0.00084628
Loading maneuver chart data...
Computing Atmospheric mass density...
Loading historical data...
Loading historical data...
Loading historical data...
Loading historical data...
Loading historical data...
Loading historical data...
Loading historical data...

Documentation

Showing up to 5 results
|